Simultaneous Nadir Overpasses (SNOs) Predictions

Prediction of SNOs between FY3D and TERRA Satellite Orbit:

Table of predicted SNOs for the next 14.0 days since TLE Epoch: 2/19/2022
Index Date (FY3D) Time (FY3D) Lat,Lon (FY3D) SZA (FY3D ) Date (TERRA) Time (TERRA) Lat,Lon (TERRA) SZA (TERRA ) Distance(km) Time Diff (sec)
1 02/20/2022 09:41:16 71.00, 34.45 81.80 02/20/2022 09:42:17 70.98, 34.47 81.76 2.80 61
2 02/20/2022 10:31:58 -70.88,-158.03 98.35 02/20/2022 10:31:46 -70.91,-158.00 98.32 3.32 12
3 02/20/2022 11:22:32 70.19, 10.39 80.94 02/20/2022 11:21:23 70.26, 8.68 81.04 65.03 69
4 02/23/2022 01:08:23 -70.98, -17.26 99.20 02/23/2022 01:09:15 -70.99, -17.27 99.19 1.97 52
5 02/23/2022 01:59:08 70.86, 150.23 80.68 02/23/2022 01:58:42 70.89, 150.22 80.71 3.15 26
6 02/25/2022 16:35:33 70.96, -69.01 79.81 02/25/2022 16:36:11 70.96, -69.07 79.81 2.32 38
7 02/25/2022 17:26:16 -70.89, 98.42 100.28 02/25/2022 17:25:40 -70.90, 98.47 100.27 2.01 36
8 02/28/2022 08:02:41 -70.99,-120.82 101.16 02/28/2022 08:03:09 -70.97,-120.82 101.19 3.03 28
9 02/28/2022 08:53:26 70.88, 46.68 78.72 02/28/2022 08:52:36 70.86, 46.65 78.70 2.52 50
10 03/02/2022 22:39:19 -71.76, 18.73 101.35 03/02/2022 22:40:26 -71.67, 20.92 101.49 76.99 67
11 03/02/2022 23:29:50 70.98,-172.57 77.82 03/02/2022 23:30:03 70.96,-172.57 77.81 1.73 13
12 03/03/2022 00:20:32 -70.86, -5.06 102.31 03/03/2022 00:19:33 -70.85, -5.11 102.32 2.23 59



Historial Predications of SNOs between FY3D and TERRA
